Date String (YYYY-MM-DD hh:mm:ss) UTC,Instrument flags,Ambient pressure (hPa),Sample flow (lpm),Bypass flow (lpm),Sample temperature (°C),Ambient temperature (°C),ASC tube jacket temperature (°C),LED temperature (°C),Box temperature (°C),Sample RH (%),Span deviation,Mass concentration (μg/m³),Mass concentration (μg/m³),Mass concentration (μg/m³)
DateTimeUTC,F1_M11,P_M11,Q1_M11,Q2_M11,T1_M11,T2_M11,T3_M11,T4_M11,T5_M11,U1_M11,ZSPAN_M11,X0_M11,X2_M11,X1_M11
2021-08-28 06:00:00,,0824.4,4.99,0.00,29.7,28.8,00.0,38.6,31.5,15.0,0001.2,0006.76,0004.03,0003.72
2021-08-28 06:01:00,,0824.4,5.01,0.00,29.7,28.3,00.0,38.6,31.4,15.0,0001.0,0007.45,0004.02,0003.71
2021-08-28 06:02:00,,0824.3,5.01,0.00,29.6,26.6,00.0,38.6,30.9,15.0,0000.8,0007.42,0004.00,0003.71
2021-08-28 06:03:00,,0824.4,5.00,0.00,29.5,26.3,00.0,38.6,30.9,15.4,0000.3,0007.33,0003.97,0003.70
2021-08-28 06:04:00,,0824.3,5.01,0.00,29.4,26.7,00.0,38.6,30.9,15.5,0000.1,0007.47,0003.99,0003.70
2021-08-28 06:05:00,,0824.4,5.00,0.00,29.4,27.0,00.0,38.5,31.0,15.5,0000.5,0007.49,0003.99,0003.70
2021-08-28 06:06:00,,0824.5,5.00,0.00,29.4,27.4,00.0,38.5,31.0,15.3,0000.4,0007.48,0003.98,0003.69
2021-08-28 06:07:00,,0824.4,4.98,0.00,29.4,27.7,00.0,38.5,31.1,15.1,0000.2,0007.52,0003.99,0003.69
2021-08-28 06:08:00,,0824.4,5.01,0.00,29.4,27.9,00.0,38.5,31.1,15.0,0000.3,0007.40,0003.99,0003.69
2021-08-28 06:09:00,,0824.5,4.99,0.00,29.4,28.1,00.0,38.5,31.2,14.9,0000.6,0007.57,0003.96,0003.70
2021-08-28 06:10:00,,0824.5,5.00,0.00,29.5,28.3,00.0,38.5,31.3,14.9,0000.5,0008.83,0003.95,0003.70
2021-08-28 06:11:00,,0824.4,5.00,0.00,29.5,28.4,00.0,38.5,31.3,14.9,0000.6,0008.84,0003.95,0003.70
2021-08-28 06:12:00,,0824.4,4.99,0.00,29.6,28.5,00.0,38.5,31.4,14.9,0001.2,0008.46,0004.00,0003.71
2021-08-28 06:13:00,,0824.4,5.00,0.00,29.6,28.6,00.0,38.6,31.4,14.8,0001.7,0008.42,0004.01,0003.72
2021-08-28 06:14:00,,0824.4,5.01,0.00,29.6,28.7,00.0,38.6,31.5,14.7,0002.3,0008.47,0004.03,0003.74
2021-08-28 06:15:00,,0824.5,5.00,0.00,29.7,28.8,00.0,38.6,31.5,14.8,0002.2,0008.80,0004.01,0003.74
2021-08-28 06:16:00,,0824.7,4.99,0.00,29.7,28.8,00.0,38.6,31.5,15.4,0001.5,0009.14,0004.02,0003.75
2021-08-28 06:17:00,,0824.9,5.00,0.00,29.7,27.3,00.0,38.7,31.2,16.3,0001.3,0009.36,0004.04,0003.76
2021-08-28 06:18:00,,0824.5,5.00,0.00,29.5,26.3,00.0,38.6,30.9,16.3,0001.0,0009.40,0004.08,0003.77
2021-08-28 06:19:00,,0824.4,5.00,0.00,29.4,26.5,00.0,38.6,30.9,16.3,0000.8,0009.51,0004.11,0003.79
2021-08-28 06:20:00,,0824.4,5.00,0.00,29.4,26.9,00.0,38.6,30.9,16.2,0000.8,0009.11,0004.13,0003.81
2021-08-28 06:21:00,,0824.5,5.00,0.00,29.4,27.3,00.0,38.5,31.0,15.7,0001.0,0007.96,0004.15,0003.82
2021-08-28 06:22:00,,0824.4,4.99,0.00,29.4,27.6,00.0,38.5,31.1,15.6,0001.0,0008.03,0004.14,0003.84
2021-08-28 06:23:00,,0824.4,5.01,0.00,29.4,27.9,00.0,38.5,31.2,15.6,0000.8,0008.32,0004.11,0003.84
2021-08-28 06:24:00,,0824.5,5.00,0.00,29.5,28.1,00.0,38.5,31.2,15.7,0000.3,0008.70,0004.12,0003.84
2021-08-28 06:25:00,,0824.4,4.99,0.00,29.5,28.3,00.0,38.5,31.3,15.6,-000.2,0008.76,0004.11,0003.84
2021-08-28 06:26:00,,0824.7,5.01,0.00,29.5,28.4,00.0,38.6,31.3,15.5,-000.2,0008.72,0004.15,0003.84
2021-08-28 06:27:00,,0824.7,5.00,0.00,29.6,28.5,00.0,38.6,31.4,15.6,0000.2,0008.41,0004.19,0003.85
2021-08-28 06:28:00,,0824.4,4.99,0.00,29.6,28.6,00.0,38.6,31.4,15.4,0000.6,0008.23,0004.22,0003.87
2021-08-28 06:29:00,,0824.4,5.02,0.00,29.6,28.7,00.0,38.6,31.5,15.4,0000.7,0008.26,0004.23,0003.89
2021-08-28 06:30:00,,0824.4,4.99,0.00,29.7,28.8,00.0,38.6,31.5,15.5,0000.8,0008.24,0004.23,0003.90
2021-08-28 06:31:00,,0824.4,5.00,0.00,29.7,28.9,00.0,38.7,31.6,15.4,0000.8,0008.28,0004.24,0003.90
2021-08-28 06:32:00,,0824.5,5.00,0.00,29.8,28.9,00.0,38.7,31.6,15.4,0000.7,0008.31,0004.26,0003.91
2021-08-28 06:33:00,,0824.6,5.00,0.00,29.7,27.5,00.0,38.7,31.3,15.4,0000.7,0008.68,0004.27,0003.92
2021-08-28 06:34:00,,0824.4,5.00,0.00,29.6,26.5,00.0,38.7,31.0,15.5,0000.8,0009.35,0004.32,0003.94
2021-08-28 06:35:00,,0824.6,5.00,0.00,29.5,26.7,00.0,38.7,31.0,15.6,0000.9,0009.38,0004.37,0003.96
2021-08-28 06:36:00,,0824.5,5.00,0.00,29.5,27.1,00.0,38.6,31.1,15.7,0001.3,0009.46,0004.40,0003.97
2021-08-28 06:37:00,,0824.5,5.00,0.00,29.5,27.4,00.0,38.6,31.2,15.7,0001.6,0009.44,0004.40,0003.98
2021-08-28 06:38:00,,0824.5,5.00,0.00,29.5,27.7,00.0,38.6,31.2,15.8,0001.7,0009.76,0004.38,0003.99
2021-08-28 06:39:00,,0824.5,5.01,0.00,29.5,28.0,00.0,38.6,31.3,15.7,0001.9,0010.02,0004.40,0003.99
2021-08-28 06:40:00,,0824.7,5.01,0.00,29.5,28.2,00.0,38.6,31.3,15.7,0002.0,0010.63,0004.40,0003.99
2021-08-28 06:41:00,,0824.7,4.99,0.00,29.6,28.4,00.0,38.6,31.4,15.7,0002.2,0010.62,0004.39,0003.99
2021-08-28 06:42:00,,0824.9,5.02,0.00,29.6,28.5,00.0,38.6,31.4,15.8,0002.2,0010.93,0004.39,0003.99
2021-08-28 06:43:00,,0824.8,5.00,0.00,29.6,28.6,00.0,38.6,31.5,15.8,0002.3,0010.95,0004.39,0003.99
2021-08-28 06:44:00,,0824.8,5.00,0.00,29.7,28.7,00.0,38.6,31.5,15.8,0002.1,0010.63,0004.39,0004.00
2021-08-28 06:45:00,,0824.6,5.01,0.00,29.7,28.8,00.0,38.7,31.6,15.8,0001.9,0009.81,0004.40,0004.00
2021-08-28 06:46:00,,0824.7,5.00,0.00,29.8,28.7,00.0,38.7,31.6,15.8,0001.9,0009.36,0004.39,0004.01
2021-08-28 06:47:00,,0824.8,5.00,0.00,29.7,27.2,00.0,38.7,31.2,15.8,0001.8,0009.34,0004.40,0004.00
2021-08-28 06:48:00,,0824.7,5.00,0.00,29.6,26.4,00.0,38.7,31.0,15.9,0001.8,0009.04,0004.40,0004.01
2021-08-28 06:49:00,,0824.7,5.00,0.00,29.5,26.7,00.0,38.7,31.0,16.0,0001.7,0008.83,0004.39,0004.00
2021-08-28 06:50:00,,0824.7,5.00,0.00,29.4,27.1,00.0,38.6,31.0,16.4,0001.3,0009.04,0004.36,0004.00
2021-08-28 06:51:00,,0824.7,4.98,0.00,29.4,27.4,00.0,38.6,31.1,16.6,0001.1,0008.45,0004.35,0004.00
2021-08-28 06:52:00,,0824.5,5.02,0.00,29.5,27.7,00.0,38.6,31.2,16.0,0000.9,0008.74,0004.38,0004.00
2021-08-28 06:53:00,,0824.6,4.99,0.00,29.5,28.0,00.0,38.6,31.2,16.0,0000.7,0008.63,0004.38,0004.00
2021-08-28 06:54:00,,0824.6,5.01,0.00,29.5,28.2,00.0,38.6,31.3,16.1,0000.7,0009.19,0004.39,0004.00
2021-08-28 06:55:00,,0824.6,5.01,0.00,29.6,28.3,00.0,38.6,31.3,16.2,0000.9,0009.27,0004.40,0003.99
2021-08-28 06:56:00,,0824.6,4.99,0.00,29.6,28.5,00.0,38.6,31.4,16.0,0000.6,0009.20,0004.39,0003.98
2021-08-28 06:57:00,,0824.6,5.01,0.00,29.6,28.6,00.0,38.6,31.4,15.9,0001.0,0010.06,0004.39,0003.97
2021-08-28 06:58:00,,0824.6,5.00,0.00,29.7,28.7,00.0,38.6,31.5,15.9,0000.9,0010.14,0004.38,0003.98
2021-08-28 06:59:00,,0824.5,4.99,0.00,29.7,28.8,00.0,38.7,31.5,15.8,0000.8,0010.19,0004.38,0003.98
